Вернуться в каталог

FENGYUN 1C DEB

АктивенSSO
NORAD 30549·DEBRIS·🇨🇳 China

Запущен May 10, 1999 с Taiyuan Satellite Launch Center

Loading…

Ближайшие Пролёты (ближайшие 24 часа)

TLE

СвежийSource: Space-Track

Эпоха: Sep 14, 2026, 13:08 UTC

1 30549U 99025AKP 26257.54728244  .00002220  00000-0  10672-2 0  9998
2 30549  98.4873   3.3780 0287995 202.2808 156.5636 14.00287277991521

Отслеживайте FENGYUN 1C DEB в реальном времени с AllMySat

Download on the App Store